Regional Weather Roundup
Issued by NWS

Home | Current Version | Previous Version | Graphics & Text | Print | Product List | Glossary On
Versions: 1 2 3 4 5 6 7 8 9 10 11 12 13 14 15 16 17 18 19 20 21 22 23 24 25 26 27 28 29 30 31 32 33 34 35 36 37 38 39 40 41 42 43 44 45 46 47 48 49 50
000
ASUS43 KFSD 310802
RWRSD

WEATHER ROUNDUP FOR SOUTH DAKOTA
NATIONAL WEATHER SERVICE SIOUX FALLS SD
300 AM CDT FRI OCT 31 2014

NOTE: "FAIR" INDICATES FEW OR NO CLOUDS BELOW 12,000 FEET WITH NO
SIGNIFICANT WEATHER AND/OR OBSTRUCTIONS TO VISIBILITY.


SDZ001>005-009-010-012>017-310900-
NORTHWEST AND NORTH CENTRAL SOUTH DAKOTA

CITY           SKY/WX    TMP DP  RH WIND       PRES   REMARKS
BUFFALO          N/A     32  28  85 SE15      30.37F WCI  22
FAITH            N/A     29  25  85 SE14      30.51F WCI  18
MOBRIDGE       PTCLDY    25  20  81 E8        30.55S WCI  16
$$

SDZ012>016-024>037-041>051-057-063-072>074-310900-
SOUTHWEST AND SOUTH CENTRAL SOUTH DAKOTA

CITY           SKY/WX    TMP DP  RH WIND       PRES   REMARKS
RAPID CTY ARPT CLOUDY    30  29  96 SE13      30.48F FOG     WCI  20
PIERRE         PTCLDY    19  15  84 CALM      30.57S
CUSTER         FOG       28  26  92 E5        30.38F VSB 1/4 WCI  23
ELLSWORTH AFB  CLOUDY    31  29  94 S13       30.46F FOG     WCI  21
PHILIP         CLOUDY    32  27  81 E10       30.55R WCI  24
PINE RIDGE     MOCLDY    29  27  92 E12       30.47F WCI  19
SPEARFISH      FOG       28  27  93 CALM      30.38F VSB 1/2
WINNER         FAIR      26  19  74 NE3       30.56S
$$

SDZ004>011-016>023-039-040-310900-
NORTHEAST SOUTH DAKOTA

CITY           SKY/WX    TMP DP  RH WIND       PRES   REMARKS
ABERDEEN       CLEAR     18  14  84 NW6       30.60R WCI  10
WATERTOWN      CLEAR     18  16  92 N8        30.51S WCI   8
SISSETON         N/A     21  18  88 N8        30.57R WCI  11
$$

SDZ017-020-022-023-036>040-048>070-310900-
SOUTHEAST SOUTH DAKOTA

CITY           SKY/WX    TMP DP  RH WIND       PRES   REMARKS
SIOUX FALLS    CLEAR     25  18  74 N9        30.50S WCI  15
HURON          CLEAR     18  15  88 NW8       30.58R WCI   8
CHAMBERLAIN    PTCLDY    24  19  81 N3        30.57S
MITCHELL       CLEAR     24  20  84 N9        30.57S WCI  14
YANKTON        CLEAR     27  19  74 N9        30.55S WCI  17
$$

ABBREVIATIONS USED IN REMARKS
   TC - TEMPERATURE IN CELSIUS
  WCI - WIND CHILL INDEX
   HX - HEAT INDEX
  VSB - VISIBILITY




USA.gov is the U.S. government's official web portal to all federal, state and local government web resources and services.